FW2442 Weather Reports


time (UTC)temp
F
wind
direction
speed
knots
gust
knots
rain 1hr
in
rain 24hr
in
rain mn
in
humidity
%
barometer
mb
20260903105519 77 223 7.0 13.9 0.00 0.00 0.00 55 1017.6
20260903104539 77 283 13.0 26.1 0.00 0.00 0.00 53 1017.7
20260903103518 77 309 11.3 20.9 0.00 0.00 0.00 54 1017.8
20260903102558 77 307 9.6 18.2 0.00 0.00 0.00 56 1017.9
20260903101518 76 299 7.8 18.2 0.00 0.00 0.00 57 1018.0
20260903100520 76 323 10.4 18.2 0.00 0.00 0.00 58 1018.1
20260903095518 76 292 13.0 24.3 0.00 0.00 0.00 59 1018.2
20260903094517 76 303 12.2 19.1 0.00 0.00 0.00 60 1018.3
20260903093519 75 340 8.7 18.2 0.00 0.00 0.00 61 1018.4
20260903092519 74 261 9.6 19.1 0.00 0.00 0.00 58 1018.5
20260903091539 73 293 11.3 26.1 0.00 0.00 0.00 65 1018.6
20260903090517 73 314 13.0 18.2 0.00 0.00 0.00 68 1018.7
20260903085559 72 313 8.7 14.8 0.00 0.00 0.00 70 1018.8
20260903084517 72 292 11.3 26.1 0.00 0.00 0.00 70 1018.9
20260903083537 71 338 12.2 15.6 0.00 0.00 0.00 68 1018.9
20260903082518 72 321 11.3 19.1 0.00 0.00 0.00 68 1019.0
20260903081519 72 320 9.6 17.4 0.00 0.00 0.00 68 1019.0
20260903080537 71 292 16.5 26.9 0.00 0.00 0.00 71 1019.0
20260903075519 70 298 16.5 21.7 0.00 0.00 0.00 73 1019.0
20260903074518 70 301 16.5 26.9 0.00 0.00 0.00 77 1019.0
20260903073518 69 289 17.4 26.1 0.00 0.00 0.00 77 1019.1
20260903072519 69 287 17.4 24.3 0.00 0.00 0.00 79 1018.9
20260903071519 69 288 15.6 23.5 0.00 0.00 0.00 77 1019.0
20260903070516 69 317 12.2 24.3 0.00 0.00 0.00 78 1019.0
20260903065518 68 298 13.9 24.3 0.00 0.00 0.00 81 1019.0
20260903064520 67 288 19.1 25.2 0.00 0.00 0.00 81 1019.0
20260903063519 67 279 16.5 26.1 0.00 0.00 0.00 80 1019.0
20260903062517 67 283 17.4 26.9 0.00 0.00 0.00 81 1019.0
20260903061538 67 287 17.4 23.5 0.00 0.00 0.00 79 1019.0
20260903060518 67 293 15.6 20.0 0.00 0.00 0.00 78 1019.1
20260903055518 68 349 11.3 20.9 0.00 0.00 0.00 76 1019.0
20260903054516 68 353 5.2 8.7 0.00 0.00 0.00 77 1019.0
20260903053519 65 36 3.5 8.7 0.00 0.00 0.00 83 1019.1
20260903052520 64 347 7.0 11.3 0.00 0.00 0.00 86 1019.1
20260903051519 63 5 5.2 9.6 0.00 0.00 0.00 87 1019.0
20260903050521 63 353 7.8 11.3 0.00 0.00 0.00 87 1019.1
20260903045517 64 4 8.7 16.5 0.00 0.00 0.00 85 1019.0
20260903044521 63 346 6.1 11.3 0.00 0.00 0.00 87 1019.0
20260903043518 63 10 6.1 9.6 0.00 0.00 0.00 87 1018.9
20260903042520 62 359 7.0 10.4 0.00 0.00 0.00 88 1018.9
20260903041518 62 10 8.7 12.2 0.00 0.00 0.00 89 1018.9
20260903040520 62 14 10.4 14.8 0.00 0.00 0.00 88 1018.7
20260903035518 62 14 13.9 20.0 0.00 0.00 0.00 87 1018.6
20260903034521 62 11 13.9 20.0 0.00 0.00 0.00 87 1018.8
20260903033520 62 21 11.3 16.5 0.00 0.00 0.00 86 1018.9
20260903032521 62 4 9.6 14.8 0.00 0.00 0.00 86 1018.9
20260903031517 62 2 12.2 17.4 0.00 0.00 0.00 85 1018.9
20260903030520 63 352 12.2 19.1 0.00 0.00 0.00 83 1018.8
20260903025518 63 348 12.2 19.1 0.00 0.00 0.00 82 1018.6
20260903024520 64 6 15.6 22.6 0.00 0.00 0.00 81 1018.6
20260903023519 64 355 16.5 22.6 0.00 0.00 0.00 80 1018.7
20260903022521 65 13 15.6 23.5 0.00 0.00 0.00 79 1018.6
20260903021539 65 16 12.2 23.5 0.00 0.00 0.00 77 1018.6
20260903020521 65 347 9.6 16.5 0.00 0.00 0.00 77 1018.7
20260903015517 65 354 15.6 22.6 0.00 0.00 0.00 77 1018.7
20260903014517 65 325 12.2 22.6 0.00 0.00 0.00 77 1018.8
20260903013519 66 329 11.3 20.0 0.00 0.00 0.00 76 1018.7
20260903012520 66 4 8.7 13.9 0.00 0.00 0.00 76 1018.6
20260903011539 66 10 8.7 15.6 0.00 0.00 0.00 76 1018.5
20260903010521 66 5 14.8 22.6 0.00 0.00 0.00 77 1018.5
20260903005517 66 8 10.4 16.5 0.00 0.00 0.00 77 1018.4
20260903004521 66 360 8.7 13.0 0.00 0.00 0.00 78 1018.5
20260903003539 66 358 9.6 19.1 0.00 0.00 0.00 77 1018.4
20260903002518 66 340 12.2 17.4 0.00 0.00 0.00 77 1018.4
20260903001518 66 353 14.8 21.7 0.00 0.00 0.00 76 1018.3
20260903000540 67 344 12.2 18.2 0.00 0.00 0.00 74 1018.5
20260902235518 66 343 11.3 18.2 0.00 0.00 0.00 76 1018.4
20260902234521 66 333 9.6 26.9 0.00 0.00 0.00 76 1018.4
20260902233519 67 337 10.4 14.8 0.00 0.00 0.00 74 1018.2
20260902232521 67 353 8.7 16.5 0.00 0.00 0.00 74 1018.2
20260902231538 67 335 6.1 11.3 0.00 0.00 0.00 74 1018.2
20260902230519 68 329 7.0 12.2 0.00 0.00 0.00 72 1018.3
20260902225518 68 349 7.0 10.4 0.00 0.00 0.00 71 1018.3
20260902224519 68 356 6.1 10.4 0.00 0.00 0.00 71 1018.2
20260902223518 68 5 6.1 7.8 0.00 0.00 0.00 71 1018.3
20260902222541 68 1 7.0 9.6 0.00 0.00 0.00 71 1018.3
20260902221518 68 349 7.0 9.6 0.00 0.00 0.00 71 1018.4
20260902220538 68 347 7.0 9.6 0.00 0.00 0.00 70 1018.4
20260902215559 68 356 7.8 9.6 0.00 0.00 0.00 70 1018.3
20260902214518 68 8 7.8 11.3 0.00 0.00 0.00 70 1018.2
20260902213517 69 355 9.6 13.9 0.00 0.00 0.00 70 1018.3
20260902212521 68 360 6.1 7.0 0.00 0.00 0.00 70 1018.3
20260902211519 68 6 6.1 7.8 0.00 0.00 0.00 70 1018.3
20260902210521 69 10 7.0 8.7 0.00 0.00 0.00 70 1018.2
20260902205539 69 5 7.8 9.6 0.00 0.00 0.00 69 1018.1
20260902204521 69 11 9.6 11.3 0.00 0.00 0.00 69 1018.0
20260902203519 70 16 9.6 13.0 0.00 0.00 0.00 68 1017.9
20260902202541 70 10 10.4 13.0 0.00 0.00 0.00 67 1018.0
20260902201519 70 7 9.6 13.0 0.00 0.00 0.00 67 1018.0
20260902200521 71 6 7.8 12.2 0.00 0.00 0.00 67 1018.0
20260902195518 71 4 8.7 13.0 0.00 0.00 0.00 67 1018.0
20260902194539 71 356 8.7 15.6 0.00 0.00 0.00 68 1018.1
20260902193519 71 348 9.6 15.6 0.00 0.00 0.00 68 1018.1
20260902192521 71 349 7.0 11.3 0.00 0.00 0.00 68 1018.2
20260902191517 71 360 7.0 11.3 0.00 0.00 0.00 67 1018.1
20260902190522 72 355 7.8 10.4 0.00 0.00 0.00 67 1018.1
20260902185519 72 357 7.0 11.3 0.00 0.00 0.00 66 1018.1
20260902184537 72 357 8.7 13.0 0.00 0.00 0.00 66 1018.1
20260902183518 73 350 9.6 14.8 0.00 0.00 0.00 65 1018.0
20260902182542 74 339 7.8 10.4 0.00 0.00 0.00 65 1018.0
20260902181517 74 338 7.0 9.6 0.00 0.00 0.00 65 1017.9
20260902180522 74 347 4.3 6.1 0.00 0.00 0.00 65 1017.9
20260902175518 74 333 0.9 4.3 0.00 0.00 0.00 65 1017.8
20260902174522 74 17 4.3 5.2 0.00 0.00 0.00 65 1017.7
20260902173517 74 16 0.9 3.5 0.00 0.00 0.00 65 1017.5
20260902172518 74 15 4.3 5.2 0.00 0.00 0.00 66 1017.5
20260902171518 74 347 2.6 4.3 0.00 0.00 0.00 65 1017.4
20260902170540 74 6 1.7 4.3 0.00 0.00 0.00 65 1017.4
20260902165518 75 332 0.9 4.3 0.00 0.00 0.00 64 1017.2
20260902164523 75 355 2.6 3.5 0.00 0.00 0.00 64 1017.1
20260902163518 76 341 0.0 2.6 0.00 0.00 0.00 63 1017.0
20260902162521 77 335 0.9 4.3 0.00 0.00 0.00 61 1017.1
20260902161537 77 343 4.3 8.7 0.00 0.00 0.00 60 1017.2
20260902160517 78 302 2.6 6.1 0.00 0.00 0.00 61 1017.2
20260902155518 78 294 4.3 6.1 0.00 0.00 0.00 61 1017.3
20260902154520 78 285 6.1 9.6 0.00 0.00 0.00 59 1017.3
20260902153519 79 284 8.7 11.3 0.00 0.00 0.00 57 1017.3
20260902152521 80 288 9.6 14.8 0.00 0.00 0.00 56 1017.3
20260902151519 80 282 2.6 6.1 0.00 0.00 0.00 55 1017.3
20260902150542 79 269 6.1 9.6 0.00 0.00 0.00 56 1017.4
20260902145518 80 282 10.4 14.8 0.00 0.00 0.00 55 1017.3
20260902144518 80 313 5.2 11.3 0.00 0.00 0.00 54 1017.4
20260902143518 80 276 12.2 16.5 0.00 0.00 0.00 54 1017.5
20260902142522 80 275 5.2 9.6 0.00 0.00 0.00 56 1017.5
20260902141517 79 340 7.0 11.3 0.00 0.00 0.00 56 1017.7
20260902140539 80 297 7.8 17.4 0.00 0.00 0.00 56 1017.7
20260902135517 80 268 9.6 18.2 0.00 0.00 0.00 56 1017.8
20260902134521 80 313 8.7 22.6 0.00 0.00 0.00 57 1017.8
20260902133518 80 295 11.3 16.5 0.00 0.00 0.00 57 1017.9
20260902132542 78 283 6.1 11.3 0.00 0.00 0.00 59 1018.1
20260902131518 78 279 13.9 20.0 0.00 0.00 0.00 60 1018.2
20260902130541 79 299 5.2 13.9 0.00 0.00 0.00 59 1018.2
20260902125517 81 336 10.4 19.1 0.00 0.00 0.00 58 1018.2
20260902124521 80 182 6.1 11.3 0.00 0.00 0.00 57 1018.3
20260902123538 80 228 15.6 22.6 0.00 0.00 0.00 57 1018.4
20260902122520 79 252 11.3 19.1 0.00 0.00 0.00 60 1018.5
20260902121519 77 235 13.0 20.0 0.00 0.00 0.00 62 1018.7
20260902120541 77 242 15.6 22.6 0.00 0.00 0.00 64 1018.7
20260902115538 76 245 10.4 15.6 0.00 0.00 0.00 64 1018.7
20260902114520 76 305 4.3 7.8 0.00 0.00 0.00 65 1018.8
20260902113538 75 3 4.3 9.6 0.00 0.00 0.00 66 1018.9
20260902112516 75 318 9.6 18.2 0.00 0.00 0.00 67 1019.0
20260902111541 76 268 14.8 20.0 0.00 0.00 0.00 66 1019.1
20260902110520 76 284 18.2 26.1 0.00 0.00 0.00 65 1019.2